Park Rapids, MN

7:59 AM CDT on April 22, 2018 (GMT -0500)
Park Rapids Municipal

Weather History for KPKD - January, 2013

Change the Weather History Date:

Thursday, January 17, 2013

  Actual Average Record
Temperature  
Mean Temperature 3 °F -  
Max Temperature 10 °F 16 °F 40 °F (1986)
Min Temperature -4 °F -5 °F -41 °F (1962)
Degree Days  
Heating Degree Days 62    
Moisture  
Dew Point -4 °F    
Average Humidity 70    
Maximum Humidity 78    
Minimum Humidity 62    
Precipitation  
Precipitation 0.00 in - - ()
Sea Level Pressure  
Sea Level Pressure 30.34 in    
Wind  
Wind Speed 6 mph (West)    
Max Wind Speed 15 mph    
Max Gust Speed -    
Visibility 9 miles    
Events Snow    
Averages and records for this station are not official NWS values.
T = Trace of Precipitation, MM = Missing Value Source: NWS Daily Summary

Daily Weather History Graph

Daily Weather History Graph

Search for Another Location

Airport or City:

Astronomy

Jan. 17, 2013 Rise Set
Actual Time 7:59 AM CST 5:01 PM CST
Civil Twilight 7:25 AM CST 5:35 PM CST
Nautical Twilight 6:48 AM CST 6:13 PM CST
Astronomical Twilight 6:11 AM CST 6:49 PM CST
Moon 10:39 AM CST (1/17) No Moon Set
Length of Visible Light 10h 09m
Length of Day
9h 02m
Waxing Crescent, 38% of the Moon is Illuminated
Jan 17
Waxing Crescent
Jan 18
First Quarter
Jan 26
Full
Feb 3
Last Quarter
Feb 10
New

Hourly Weather History & Observations

Time (CST) Temp. Windchill Dew Point Humidity Pressure Visibility Wind Dir Wind Speed Gust Speed Precip Events Conditions
12:53 AM -2.9 °F -17.7 °F -11.0 °F 68% 30.33 in 9.0 mi West 8.1 mph - 0.00 in Snow Light Snow
1:53 AM -4.0 °F -14.6 °F -11.9 °F 69% 30.33 in 10.0 mi WNW 4.6 mph - 0.00 in   Overcast
2:53 AM -4.0 °F -14.6 °F -11.2 °F 71% 30.22 in 10.0 mi West 4.6 mph - N/A   Mostly Cloudy
3:53 AM -2.9 °F -13.3 °F -11.0 °F 68% 30.35 in 10.0 mi West 4.6 mph - N/A   Overcast
4:07 AM -2.2 °F -12.5 °F -11.2 °F 66% 30.22 in 10.0 mi West 4.6 mph - N/A   Overcast
4:53 AM -2.0 °F -12.2 °F -11.0 °F 66% 30.34 in 10.0 mi WSW 4.6 mph - N/A   Overcast
5:53 AM -0.9 °F -12.7 °F -9.0 °F 69% 30.35 in 10.0 mi West 5.8 mph - 0.00 in   Overcast
6:53 AM -0.0 °F -9.9 °F -8.0 °F 69% 30.36 in 6.0 mi WSW 4.6 mph - 0.00 in Snow Light Snow
7:53 AM 1.0 °F -10.3 °F -7.1 °F 69% 30.37 in 6.0 mi SW 5.8 mph - 0.00 in Snow Light Snow
8:44 AM 1.4 °F -8.3 °F -5.8 °F 72% 30.26 in 8.0 mi WSW 4.6 mph - 0.00 in   Overcast
8:53 AM 1.0 °F -8.7 °F -6.0 °F 72% 30.39 in 5.0 mi WSW 4.6 mph - 0.00 in Snow Light Snow
9:20 AM 1.4 °F -6.2 °F -4.0 °F 78% 30.27 in 2.5 mi West 3.5 mph - 0.00 in Snow Light Snow
9:53 AM 3.0 °F -4.4 °F -2.9 °F 76% 30.41 in 1.5 mi West 3.5 mph - 0.00 in Snow Light Snow
10:05 AM 3.2 °F -4.2 °F -2.2 °F 78% 30.28 in 2.5 mi West 3.5 mph - 0.00 in Snow Light Snow
10:19 AM 3.2 °F -7.8 °F -2.2 °F 78% 30.28 in 4.0 mi West 5.8 mph - 0.00 in Snow Light Snow
10:53 AM 6.1 °F -6.8 °F -0.0 °F 76% 30.41 in 10.0 mi WNW 8.1 mph - 0.00 in   Overcast
11:14 AM 8.6 °F -4.7 °F 1.4 °F 73% 30.29 in 10.0 mi WNW 9.2 mph - N/A   Overcast
11:53 AM 10.0 °F -3.7 °F 1.9 °F 70% 30.40 in 10.0 mi WNW 10.4 mph - N/A   Overcast
12:40 PM 10.4 °F -6.0 °F -0.4 °F 62% 30.28 in 10.0 mi NW 15.0 mph - 0.00 in   Partly Cloudy
12:53 PM 10.9 °F -3.4 °F 1.0 °F 64% 30.41 in 10.0 mi NW 11.5 mph - 0.00 in   Scattered Clouds
1:00 PM 10.4 °F -5.4 °F 1.4 °F 67% 30.29 in 10.0 mi NW 13.8 mph - N/A   Mostly Cloudy
1:30 PM 10.4 °F -4.1 °F -0.4 °F 62% 30.28 in 10.0 mi WNW 11.5 mph - N/A   Scattered Clouds
1:53 PM 10.0 °F -5.2 °F 1.0 °F 67% 30.40 in 10.0 mi WNW 12.7 mph - N/A   Partly Cloudy
2:53 PM 10.0 °F -2.9 °F -0.0 °F 64% 30.40 in 10.0 mi WNW 9.2 mph - N/A   Clear
3:53 PM 8.1 °F -3.2 °F -0.9 °F 67% 30.41 in 10.0 mi West 6.9 mph - N/A   Clear
4:53 PM 5.0 °F -6.9 °F -4.0 °F 66% 30.40 in 10.0 mi WNW 6.9 mph - N/A   Clear
5:53 PM 1.9 °F - -6.0 °F 69% 30.41 in 10.0 mi Calm Calm - N/A   Clear
6:53 PM -0.0 °F -7.9 °F -7.1 °F 72% 30.40 in 10.0 mi SW 3.5 mph - N/A   Mostly Cloudy
7:53 PM 1.9 °F - -5.1 °F 72% 30.38 in 10.0 mi Calm Calm - N/A   Mostly Cloudy
8:53 PM 3.0 °F -4.4 °F -4.0 °F 73% 30.37 in 10.0 mi SW 3.5 mph - N/A   Overcast
9:53 PM 5.0 °F - -2.9 °F 70% 30.33 in 10.0 mi Calm Calm - N/A   Overcast
10:53 PM 6.1 °F -2.8 °F -2.0 °F 69% 30.29 in 10.0 mi East 4.6 mph - N/A   Overcast
11:53 PM 7.0 °F -1.7 °F -0.9 °F 70% 30.25 in 10.0 mi ESE 4.6 mph - 0.00 in   Overcast